Tracking 29932 objects as of 3-Dec-2024
HD Live streaming from Space Station
objects crossing your sky now

GLOBALSTAR M049

Track GLOBALSTAR M049 now!
10-day predictions
GLOBALSTAR M049 is classified as:


NORAD ID: 25771
Int'l Code: 1999-031B
Perigee: 2,103.7 km
Apogee: 2,110.6 km
Inclination: 52.0 °
Period: 129.5 minutes
Semi major axis: 8478 km
RCS: 2.3329 m2 (large)
Launch date: June 10, 1999
Source: Globalstar (GLOB)
Launch site: AIR FORCE EASTERN TEST RANGE (AFETR)
Your satellite tracking list
Your tracking list is empty




NASA's NSSDC Master Catalog

Two Line Element Set (TLE):
1 25771U 99031B   24337.86710997 -.00000140  00000-0 -26082-2 0  9997
2 25771  51.9881 278.9577 0004053  45.3826 314.7301 11.12113188 95584
Source of the keplerian elements: AFSPC